sat.trackr.live / text

‹ back to catalog

STARLINK-34945

NORAD 65185 · 2025-175M

PAYLOAD ACTIVE UNKNOWN

§ Identity

Operator
Country
US
Launch date
2025-08-14
Launch site
AFWTR
Launch vehicle
Mass (kg)
RCS (m²)

Purposes: comms

External: N2YO · Heavens-Above · Gunter

§ Orbital elements

Epoch: 2026-09-20T22:03:46.750176Z

Period
93.91 min
Inclination
97.2849°
Eccentricity
0.0002097
Mean motion
15.33449867 rev/d
Perigee alt
464.1 km
Apogee alt
467.0 km
Semi-major
6,843.7 km
B*
2.5011e-4
RAAN
132.8436°
Arg perigee
87.4503°
Mean anomaly
272.6980°
Rev number
6,219

§ Raw data

STARLINK-349451 65185U 25175M   26263.91929109  .00008010  00000+0  25011-3 0  99942 65185  97.2849 132.8436 0002097  87.4503 272.6980 15.33449867 62190

JSON: /api/v1/satellites/65185 · /tle

For live sub-satellite position, see the globe view (requires WebGL).

§ Visibility from observer

Set your observer location to see the next 7 days of passes ≥ 10°. The values pass through the URL so the page stays shareable.

No JS? Fill the form by hand. The geolocation button needs JavaScript.